| time (UTC) | temp F | wind direction | speed MPH | gust MPH | rain 1hr in | rain 24hr in | rain mn in | humidity % | barometer mb |
| 20260508065033 | 57 | 277 | 0.0 | 0.0 | 0.00 | 0.01 | 0.01 | 84 | 1016.2 |
| 20260508064527 | 57 | 277 | 0.0 | 0.0 | 0.00 | 0.01 | 0.01 | 84 | 1016.2 |
| 20260508064025 | 57 | 277 | 0.0 | 0.0 | 0.00 | 0.01 | 0.01 | 83 | 1016.1 |
| 20260508063523 | 57 | 277 | 0.0 | 0.0 | 0.00 | 0.01 | 0.01 | 83 | 1016.1 |
| 20260508063032 | 57 | 277 | 0.0 | 0.0 | 0.00 | 0.01 | 0.01 | 83 | 1016.1 |
| 20260508062535 | 57 | 277 | 0.0 | 0.0 | 0.00 | 0.01 | 0.01 | 83 | 1016.0 |
| 20260508062041 | 57 | 277 | 0.0 | 0.0 | 0.00 | 0.01 | 0.01 | 83 | 1016.0 |
| 20260508061517 | 57 | 277 | 0.0 | 0.0 | 0.00 | 0.01 | 0.01 | 82 | 1015.9 |
| 20260508061031 | 57 | 277 | 0.0 | 0.0 | 0.00 | 0.01 | 0.01 | 83 | 1015.8 |
| 20260508060606 | 56 | 277 | 0.0 | 0.0 | 0.00 | 0.01 | 0.01 | 81 | 1015.8 |
| 20260508060028 | 57 | 277 | 0.0 | 0.0 | 0.00 | 0.01 | 0.01 | 81 | 1015.8 |
| 20260508055532 | 57 | 277 | 0.0 | 0.0 | 0.00 | 0.01 | 0.01 | 81 | 1015.8 |
| 20260508055019 | 57 | 277 | 0.0 | 0.0 | 0.00 | 0.01 | 0.01 | 80 | 1015.9 |
| 20260508054518 | 57 | 277 | 0.0 | 0.0 | 0.00 | 0.01 | 0.01 | 80 | 1015.9 |
| 20260508054031 | 57 | 277 | 0.0 | 0.0 | 0.00 | 0.01 | 0.01 | 80 | 1016.0 |
| 20260508053522 | 57 | 277 | 0.0 | 0.0 | 0.00 | 0.01 | 0.01 | 80 | 1016.0 |
| 20260508053032 | 58 | 277 | 0.0 | 0.0 | 0.00 | 0.01 | 0.01 | 79 | 1016.0 |
| 20260508052532 | 58 | 277 | 0.0 | 0.0 | 0.00 | 0.01 | 0.01 | 79 | 1015.9 |
| 20260508052101 | 58 | 277 | 0.0 | 0.0 | 0.00 | 0.01 | 0.01 | 79 | 1015.8 |
| 20260508051517 | 58 | 277 | 0.0 | 0.0 | 0.00 | 0.01 | 0.01 | 78 | 1015.9 |
| 20260508051016 | 58 | 277 | 0.0 | 0.0 | 0.00 | 0.01 | 0.01 | 78 | 1015.6 |
| 20260508050601 | 59 | 277 | 0.0 | 0.0 | 0.00 | 0.01 | 0.01 | 77 | 1015.6 |
| 20260508050025 | 59 | 277 | 0.0 | 0.0 | 0.00 | 0.01 | 0.01 | 77 | 1015.8 |
| 20260508045523 | 59 | 277 | 0.0 | 0.0 | 0.00 | 0.01 | 0.01 | 77 | 1015.8 |
| 20260508045035 | 59 | 277 | 0.0 | 0.0 | 0.00 | 0.01 | 0.01 | 76 | 1015.8 |
| 20260508044533 | 60 | 277 | 0.0 | 0.0 | 0.00 | 0.01 | 0.01 | 76 | 1015.7 |
| 20260508044025 | 60 | 277 | 0.0 | 0.0 | 0.00 | 0.01 | 0.01 | 76 | 1015.7 |
| 20260508043527 | 60 | 277 | 0.0 | 0.0 | 0.00 | 0.01 | 0.01 | 75 | 1015.8 |
| 20260508043017 | 60 | 277 | 0.0 | 0.0 | 0.00 | 0.01 | 0.01 | 75 | 1015.6 |
| 20260508042535 | 61 | 277 | 0.0 | 0.0 | 0.00 | 0.01 | 0.01 | 74 | 1015.5 |
| 20260508042026 | 61 | 277 | 0.0 | 0.0 | 0.00 | 0.01 | 0.01 | 74 | 1015.4 |
| 20260508041524 | 61 | 277 | 0.0 | 0.0 | 0.00 | 0.01 | 0.01 | 74 | 1015.3 |
| 20260508041021 | 62 | 277 | 0.0 | 0.0 | 0.00 | 0.01 | 0.01 | 74 | 1015.3 |
| 20260508040545 | 62 | 277 | 0.0 | 0.0 | 0.00 | 0.01 | 0.01 | 73 | 1015.3 |
| 20260508040019 | 62 | 277 | 0.0 | 0.0 | 0.00 | 0.01 | 0.01 | 73 | 1015.2 |
| 20260508035518 | 63 | 277 | 0.0 | 0.0 | 0.00 | 0.01 | 0.01 | 72 | 1015.2 |
| 20260508035030 | 63 | 277 | 0.0 | 0.0 | 0.00 | 0.01 | 0.01 | 72 | 1015.1 |
| 20260508034532 | 63 | 277 | 0.0 | 0.0 | 0.00 | 0.01 | 0.01 | 72 | 1015.1 |
| 20260508034024 | 63 | 277 | 0.0 | 0.0 | 0.00 | 0.01 | 0.01 | 71 | 1015.1 |
| 20260508033538 | 64 | 277 | 0.0 | 0.0 | 0.00 | 0.01 | 0.01 | 71 | 1015.0 |
| 20260508033030 | 64 | 277 | 0.0 | 0.0 | 0.00 | 0.01 | 0.01 | 70 | 1014.9 |
| 20260508032546 | 65 | 277 | 0.0 | 0.0 | 0.00 | 0.01 | 0.01 | 70 | 1014.9 |
| 20260508032024 | 65 | 277 | 0.0 | 0.0 | 0.00 | 0.01 | 0.01 | 69 | 1014.9 |
| 20260508031524 | 65 | 277 | 0.0 | 0.0 | 0.00 | 0.01 | 0.01 | 68 | 1014.8 |
| 20260508031022 | 66 | 277 | 0.0 | 0.0 | 0.00 | 0.01 | 0.01 | 68 | 1014.8 |
| 20260508030546 | 66 | 277 | 0.0 | 0.0 | 0.00 | 0.01 | 0.01 | 68 | 1014.7 |
| 20260508030020 | 66 | 277 | 0.0 | 0.0 | 0.00 | 0.01 | 0.01 | 67 | 1014.8 |
| 20260508025519 | 67 | 277 | 0.0 | 0.0 | 0.00 | 0.01 | 0.01 | 67 | 1014.7 |
| 20260508025031 | 67 | 277 | 0.0 | 0.0 | 0.00 | 0.01 | 0.01 | 66 | 1014.6 |
| 20260508024534 | 67 | 277 | 0.0 | 0.0 | 0.00 | 0.01 | 0.01 | 66 | 1014.7 |
| 20260508024026 | 67 | 277 | 0.0 | 0.0 | 0.00 | 0.01 | 0.01 | 65 | 1014.6 |
| 20260508023520 | 68 | 277 | 0.0 | 0.0 | 0.00 | 0.01 | 0.01 | 65 | 1014.4 |
| 20260508023026 | 68 | 277 | 0.0 | 0.0 | 0.00 | 0.01 | 0.01 | 65 | 1014.5 |
| 20260508022527 | 68 | 277 | 0.0 | 0.0 | 0.00 | 0.01 | 0.01 | 64 | 1014.5 |
| 20260508022023 | 68 | 277 | 0.0 | 0.0 | 0.00 | 0.01 | 0.01 | 64 | 1014.4 |
| 20260508021525 | 69 | 277 | 0.0 | 0.0 | 0.00 | 0.01 | 0.01 | 64 | 1014.4 |
| 20260508021015 | 69 | 277 | 0.0 | 0.0 | 0.00 | 0.01 | 0.01 | 63 | 1014.5 |
| 20260508020602 | 69 | 277 | 0.0 | 0.0 | 0.00 | 0.01 | 0.01 | 62 | 1014.5 |
| 20260508020025 | 69 | 277 | 0.0 | 0.0 | 0.00 | 0.01 | 0.01 | 62 | 1014.4 |
| 20260508015526 | 70 | 277 | 0.0 | 0.0 | 0.00 | 0.01 | 0.01 | 61 | 1014.4 |
| 20260508015024 | 70 | 275 | 0.0 | 0.0 | 0.00 | 0.01 | 0.01 | 61 | 1014.4 |
| 20260508014537 | 70 | 275 | 0.0 | 0.0 | 0.00 | 0.01 | 0.01 | 61 | 1014.4 |
| 20260508014028 | 70 | 275 | 0.0 | 0.0 | 0.00 | 0.01 | 0.01 | 61 | 1014.3 |
| 20260508013522 | 70 | 275 | 0.0 | 0.0 | 0.00 | 0.01 | 0.01 | 60 | 1014.3 |
| 20260508013037 | 71 | 275 | 0.0 | 0.0 | 0.00 | 0.01 | 0.01 | 60 | 1014.3 |
| 20260508012518 | 71 | 275 | 0.0 | 0.0 | 0.00 | 0.01 | 0.01 | 59 | 1014.3 |
| 20260508012016 | 71 | 275 | 0.0 | 0.0 | 0.00 | 0.01 | 0.01 | 59 | 1014.3 |
| 20260508011537 | 72 | 275 | 0.0 | 1.0 | 0.00 | 0.01 | 0.01 | 58 | 1014.3 |
| 20260508011029 | 72 | 275 | 0.0 | 1.0 | 0.00 | 0.01 | 0.01 | 58 | 1014.2 |
| 20260508010611 | 72 | 275 | 0.0 | 0.0 | 0.00 | 0.01 | 0.01 | 58 | 1014.3 |
| 20260508010044 | 73 | 275 | 0.0 | 0.0 | 0.00 | 0.01 | 0.01 | 57 | 1014.3 |
| 20260508005538 | 73 | 247 | 0.0 | 0.0 | 0.00 | 0.01 | 0.01 | 57 | 1014.3 |
| 20260508005029 | 74 | 287 | 0.0 | 2.0 | 0.00 | 0.01 | 0.01 | 56 | 1014.3 |
| 20260508004532 | 74 | 287 | 0.0 | 4.0 | 0.00 | 0.01 | 0.01 | 56 | 1014.4 |
| 20260508004026 | 74 | 266 | 0.0 | 1.0 | 0.00 | 0.01 | 0.01 | 55 | 1014.3 |
| 20260508003524 | 75 | 106 | 0.0 | 2.0 | 0.00 | 0.01 | 0.01 | 54 | 1014.3 |
| 20260508003020 | 75 | 226 | 0.0 | 2.0 | 0.00 | 0.01 | 0.01 | 54 | 1014.2 |
| 20260508002523 | 75 | 5 | 0.0 | 5.0 | 0.00 | 0.01 | 0.01 | 54 | 1014.2 |
| 20260508002022 | 76 | 334 | 1.0 | 5.0 | 0.00 | 0.01 | 0.01 | 54 | 1014.2 |
| 20260508001523 | 76 | 211 | 0.0 | 2.0 | 0.00 | 0.01 | 0.01 | 53 | 1014.2 |
| 20260508001021 | 76 | 115 | 0.0 | 1.0 | 0.00 | 0.01 | 0.01 | 53 | 1014.2 |
| 20260508000544 | 76 | 55 | 0.0 | 2.0 | 0.00 | 0.01 | 0.01 | 53 | 1014.2 |
| 20260508000037 | 77 | 30 | 0.0 | 4.0 | 0.00 | 0.01 | 0.01 | 52 | 1014.2 |
| 20260507235537 | 77 | 206 | 0.0 | 4.0 | 0.00 | 0.01 | 0.01 | 52 | 1014.3 |
| 20260507235031 | 77 | 44 | 0.0 | 7.0 | 0.00 | 0.01 | 0.01 | 53 | 1014.3 |
| 20260507234534 | 77 | 215 | 3.0 | 9.0 | 0.00 | 0.01 | 0.01 | 52 | 1014.2 |
| 20260507234026 | 77 | 202 | 2.0 | 9.0 | 0.00 | 0.01 | 0.01 | 52 | 1014.2 |
| 20260507233523 | 77 | 360 | 3.0 | 9.0 | 0.00 | 0.01 | 0.01 | 51 | 1014.2 |
| 20260507233042 | 78 | 266 | 0.0 | 3.0 | 0.00 | 0.01 | 0.01 | 51 | 1014.3 |
| 20260507232521 | 78 | 286 | 0.0 | 5.0 | 0.00 | 0.01 | 0.01 | 52 | 1014.3 |
| 20260507232035 | 77 | 290 | 0.0 | 5.0 | 0.00 | 0.01 | 0.01 | 52 | 1014.4 |
| 20260507231556 | 77 | 242 | 0.0 | 6.0 | 0.00 | 0.01 | 0.01 | 52 | 1014.3 |
| 20260507231022 | 78 | 131 | 0.0 | 6.0 | 0.00 | 0.01 | 0.01 | 51 | 1014.3 |
| 20260507230548 | 78 | 298 | 2.0 | 8.0 | 0.00 | 0.01 | 0.01 | 50 | 1014.4 |
| 20260507230022 | 78 | 206 | 3.0 | 8.0 | 0.00 | 0.01 | 0.01 | 51 | 1014.4 |
| 20260507225545 | 78 | 229 | 3.0 | 8.0 | 0.00 | 0.01 | 0.01 | 51 | 1014.4 |
| 20260507225014 | 78 | 32 | 0.0 | 3.0 | 0.00 | 0.01 | 0.01 | 54 | 1014.5 |
| 20260507224535 | 78 | 317 | 0.0 | 6.0 | 0.00 | 0.01 | 0.01 | 51 | 1014.6 |
| 20260507224043 | 78 | 205 | 0.0 | 6.0 | 0.00 | 0.01 | 0.01 | 53 | 1014.7 |
| 20260507223543 | 78 | 195 | 2.0 | 6.0 | 0.00 | 0.01 | 0.01 | 53 | 1014.7 |
| 20260507223033 | 78 | 204 | 2.0 | 10.0 | 0.00 | 0.01 | 0.01 | 51 | 1014.7 |
| 20260507222534 | 78 | 223 | 4.0 | 10.0 | 0.00 | 0.01 | 0.01 | 52 | 1014.8 |
| 20260507222024 | 79 | 355 | 0.0 | 5.0 | 0.00 | 0.01 | 0.01 | 51 | 1014.8 |
| 20260507221514 | 79 | 111 | 1.0 | 7.0 | 0.00 | 0.01 | 0.01 | 53 | 1014.8 |
| 20260507221029 | 78 | 165 | 1.0 | 8.0 | 0.00 | 0.01 | 0.01 | 53 | 1014.8 |
| 20260507220554 | 78 | 273 | 0.0 | 11.0 | 0.00 | 0.01 | 0.01 | 53 | 1014.9 |
| 20260507220017 | 78 | 191 | 4.0 | 11.0 | 0.00 | 0.01 | 0.01 | 53 | 1014.9 |
| 20260507215536 | 77 | 250 | 2.0 | 8.0 | 0.00 | 0.01 | 0.01 | 54 | 1015.0 |
| 20260507215020 | 78 | 200 | 3.0 | 8.0 | 0.00 | 0.01 | 0.01 | 53 | 1015.0 |
| 20260507214516 | 78 | 327 | 3.0 | 8.0 | 0.00 | 0.01 | 0.01 | 54 | 1015.0 |
| 20260507214030 | 77 | 39 | 4.0 | 8.0 | 0.00 | 0.01 | 0.01 | 55 | 1015.1 |
| 20260507213521 | 77 | 29 | 2.0 | 8.0 | 0.00 | 0.01 | 0.01 | 55 | 1015.1 |
| 20260507213022 | 78 | 341 | 3.0 | 8.0 | 0.00 | 0.01 | 0.01 | 54 | 1015.1 |
| 20260507212523 | 78 | 319 | 1.0 | 10.0 | 0.00 | 0.01 | 0.01 | 54 | 1015.1 |
| 20260507212017 | 79 | 19 | 3.0 | 10.0 | 0.00 | 0.01 | 0.01 | 52 | 1015.2 |
| 20260507211519 | 79 | 338 | 2.0 | 8.0 | 0.00 | 0.01 | 0.01 | 52 | 1015.1 |
| 20260507211017 | 79 | 343 | 0.0 | 4.0 | 0.00 | 0.01 | 0.01 | 53 | 1015.1 |
| 20260507210600 | 80 | 41 | 0.0 | 5.0 | 0.00 | 0.01 | 0.01 | 53 | 1015.2 |
| 20260507210026 | 80 | 292 | 0.0 | 5.0 | 0.00 | 0.01 | 0.01 | 52 | 1015.3 |
| 20260507205521 | 80 | 229 | 1.0 | 8.0 | 0.00 | 0.01 | 0.01 | 52 | 1015.3 |
| 20260507205031 | 79 | 220 | 1.0 | 7.0 | 0.00 | 0.01 | 0.01 | 53 | 1015.4 |
| 20260507204532 | 79 | 201 | 2.0 | 10.0 | 0.00 | 0.01 | 0.01 | 52 | 1015.4 |
| 20260507204024 | 79 | 339 | 2.0 | 7.0 | 0.00 | 0.01 | 0.01 | 52 | 1015.5 |
| 20260507203525 | 79 | 11 | 2.0 | 9.0 | 0.00 | 0.01 | 0.01 | 52 | 1015.5 |
| 20260507203041 | 79 | 245 | 2.0 | 9.0 | 0.00 | 0.01 | 0.01 | 52 | 1015.5 |
| 20260507202521 | 80 | 232 | 2.0 | 9.0 | 0.00 | 0.01 | 0.01 | 53 | 1015.6 |
| 20260507202036 | 80 | 272 | 2.0 | 10.0 | 0.00 | 0.01 | 0.01 | 53 | 1015.5 |
| 20260507201536 | 80 | 233 | 4.0 | 10.0 | 0.00 | 0.01 | 0.01 | 52 | 1015.5 |
| 20260507201028 | 80 | 235 | 1.0 | 9.0 | 0.00 | 0.01 | 0.01 | 53 | 1015.5 |
| 20260507200622 | 80 | 203 | 3.0 | 9.0 | 0.00 | 0.01 | 0.01 | 53 | 1015.7 |
| 20260507200047 | 80 | 213 | 3.0 | 9.0 | 0.00 | 0.01 | 0.01 | 53 | 1015.7 |
| 20260507195522 | 80 | 323 | 1.0 | 10.0 | 0.00 | 0.01 | 0.01 | 53 | 1015.8 |
| 20260507195033 | 80 | 326 | 0.0 | 8.0 | 0.00 | 0.01 | 0.01 | 54 | 1015.6 |
| 20260507194555 | 80 | 243 | 0.0 | 8.0 | 0.00 | 0.01 | 0.01 | 52 | 1015.6 |
| 20260507194027 | 80 | 333 | 1.0 | 7.0 | 0.00 | 0.01 | 0.01 | 51 | 1015.8 |
| 20260507193522 | 80 | 210 | 2.0 | 7.0 | 0.00 | 0.01 | 0.01 | 50 | 1015.7 |
| 20260507193055 | 80 | 252 | 0.0 | 6.0 | 0.00 | 0.01 | 0.01 | 52 | 1015.8 |
| 20260507192535 | 80 | 235 | 1.0 | 6.0 | 0.00 | 0.01 | 0.01 | 51 | 1015.7 |
| 20260507192047 | 80 | 218 | 2.0 | 6.0 | 0.00 | 0.01 | 0.01 | 50 | 1015.9 |
| 20260507191519 | 79 | 219 | 0.0 | 6.0 | 0.00 | 0.01 | 0.01 | 53 | 1015.8 |
| 20260507191049 | 79 | 208 | 2.0 | 6.0 | 0.00 | 0.01 | 0.01 | 53 | 1015.9 |
| 20260507190552 | 79 | 216 | 1.0 | 6.0 | 0.00 | 0.01 | 0.01 | 52 | 1015.8 |
| 20260507190022 | 79 | 304 | 0.0 | 7.0 | 0.00 | 0.01 | 0.01 | 52 | 1015.9 |
| 20260507185518 | 79 | 200 | 1.0 | 7.0 | 0.00 | 0.01 | 0.01 | 52 | 1016.0 |
| 20260507185030 | 79 | 229 | 0.0 | 7.0 | 0.00 | 0.01 | 0.01 | 55 | 1016.0 |
| 20260507184525 | 79 | 229 | 1.0 | 7.0 | 0.00 | 0.01 | 0.01 | 52 | 1016.1 |
| 20260507184039 | 79 | 239 | 1.0 | 6.0 | 0.00 | 0.01 | 0.01 | 53 | 1016.2 |
| 20260507183603 | 78 | 239 | 3.0 | 6.0 | 0.00 | 0.01 | 0.01 | 52 | 1016.2 |
| 20260507183031 | 78 | 209 | 3.0 | 5.0 | 0.00 | 0.01 | 0.01 | 53 | 1016.1 |
| 20260507182555 | 77 | 200 | 0.0 | 7.0 | 0.00 | 0.01 | 0.01 | 54 | 1016.1 |
| 20260507182044 | 77 | 229 | 0.0 | 7.0 | 0.00 | 0.01 | 0.01 | 55 | 1016.2 |
| 20260507181520 | 77 | 225 | 0.0 | 6.0 | 0.00 | 0.01 | 0.01 | 56 | 1016.3 |
| 20260507181018 | 77 | 212 | 0.0 | 6.0 | 0.00 | 0.01 | 0.01 | 54 | 1016.3 |
| 20260507180543 | 77 | 207 | 2.0 | 7.0 | 0.00 | 0.01 | 0.01 | 55 | 1016.3 |
| 20260507180047 | 76 | 225 | 1.0 | 7.0 | 0.00 | 0.01 | 0.01 | 57 | 1016.4 |
| 20260507175527 | 76 | 184 | 1.0 | 7.0 | 0.00 | 0.01 | 0.01 | 56 | 1016.3 |
| 20260507175035 | 75 | 265 | 0.0 | 6.0 | 0.00 | 0.01 | 0.01 | 57 | 1016.3 |
| 20260507174532 | 75 | 244 | 1.0 | 6.0 | 0.00 | 0.01 | 0.01 | 57 | 1016.3 |
| 20260507174023 | 75 | 244 | 0.0 | 7.0 | 0.00 | 0.01 | 0.01 | 58 | 1016.3 |
| 20260507173538 | 74 | 213 | 1.0 | 6.0 | 0.00 | 0.01 | 0.01 | 57 | 1016.4 |
| 20260507173027 | 74 | 200 | 0.0 | 5.0 | 0.00 | 0.01 | 0.01 | 58 | 1016.4 |
| 20260507172521 | 74 | 216 | 1.0 | 5.0 | 0.00 | 0.01 | 0.01 | 58 | 1016.4 |
| 20260507172055 | 73 | 223 | 1.0 | 5.0 | 0.00 | 0.01 | 0.01 | 59 | 1016.4 |
| 20260507171531 | 73 | 315 | 0.0 | 5.0 | 0.00 | 0.01 | 0.01 | 60 | 1016.5 |
| 20260507171043 | 73 | 202 | 0.0 | 8.0 | 0.00 | 0.01 | 0.01 | 61 | 1016.5 |
| 20260507170548 | 73 | 217 | 3.0 | 8.0 | 0.00 | 0.01 | 0.01 | 60 | 1016.5 |
| 20260507170028 | 72 | 227 | 0.0 | 7.0 | 0.00 | 0.01 | 0.01 | 61 | 1016.5 |
| 20260507165526 | 72 | 188 | 1.0 | 7.0 | 0.00 | 0.01 | 0.01 | 61 | 1016.5 |
| 20260507165025 | 71 | 225 | 1.0 | 5.0 | 0.00 | 0.01 | 0.01 | 63 | 1016.6 |
| 20260507164524 | 70 | 219 | 0.0 | 6.0 | 0.00 | 0.01 | 0.01 | 63 | 1016.6 |
| 20260507164015 | 70 | 186 | 2.0 | 6.0 | 0.00 | 0.01 | 0.01 | 64 | 1016.6 |
| 20260507163537 | 69 | 198 | 0.0 | 4.0 | 0.00 | 0.01 | 0.01 | 64 | 1016.7 |
| 20260507163021 | 69 | 180 | 0.0 | 4.0 | 0.00 | 0.01 | 0.01 | 66 | 1016.7 |
| 20260507162542 | 68 | 216 | 2.0 | 4.0 | 0.00 | 0.01 | 0.01 | 66 | 1016.7 |
| 20260507162025 | 68 | 221 | 0.0 | 4.0 | 0.00 | 0.01 | 0.01 | 68 | 1016.7 |
| 20260507161525 | 67 | 223 | 0.0 | 4.0 | 0.00 | 0.01 | 0.01 | 71 | 1016.7 |
| 20260507161015 | 66 | 191 | 0.0 | 4.0 | 0.00 | 0.01 | 0.01 | 75 | 1016.7 |
| 20260507160559 | 65 | 172 | 0.0 | 1.0 | 0.00 | 0.01 | 0.01 | 76 | 1016.7 |
| 20260507160041 | 63 | 173 | 0.0 | 3.0 | 0.00 | 0.01 | 0.01 | 78 | 1016.7 |
| 20260507155521 | 62 | 173 | 1.0 | 3.0 | 0.00 | 0.01 | 0.01 | 82 | 1016.7 |
| 20260507155017 | 61 | 171 | 0.0 | 0.0 | 0.00 | 0.01 | 0.01 | 86 | 1016.7 |
| 20260507154555 | 60 | 171 | 0.0 | 0.0 | 0.00 | 0.01 | 0.01 | 88 | 1016.8 |
| 20260507154023 | 59 | 171 | 0.0 | 0.0 | 0.00 | 0.01 | 0.01 | 91 | 1016.8 |
| 20260507153520 | 58 | 171 | 0.0 | 0.0 | 0.00 | 0.01 | 0.01 | 92 | 1016.9 |
| 20260507153017 | 57 | 171 | 0.0 | 0.0 | 0.01 | 0.01 | 0.01 | 93 | 1016.8 |
| 20260507152518 | 57 | 171 | 0.0 | 0.0 | 0.01 | 0.01 | 0.01 | 94 | 1016.9 |
| 20260507152034 | 56 | 171 | 0.0 | 0.0 | 0.01 | 0.01 | 0.01 | 94 | 1016.8 |
| 20260507151535 | 55 | 171 | 0.0 | 0.0 | 0.01 | 0.01 | 0.01 | 94 | 1016.8 |
| 20260507151041 | 54 | 171 | 0.0 | 0.0 | 0.01 | 0.01 | 0.01 | 94 | 1016.9 |
| 20260507150612 | 53 | 171 | 0.0 | 0.0 | 0.01 | 0.01 | 0.01 | 93 | 1016.9 |
| 20260507150036 | 52 | 171 | 0.0 | 0.0 | 0.01 | 0.01 | 0.01 | 93 | 1016.9 |
| 20260507145556 | 52 | 171 | 0.0 | 0.0 | 0.01 | 0.01 | 0.01 | 93 | 1017.0 |
| 20260507145026 | 51 | 171 | 0.0 | 0.0 | 0.01 | 0.01 | 0.01 | 93 | 1016.9 |
| 20260507144522 | 50 | 171 | 0.0 | 0.0 | 0.01 | 0.01 | 0.01 | 93 | 1016.9 |
| 20260507144020 | 50 | 171 | 0.0 | 0.0 | 0.01 | 0.01 | 0.01 | 92 | 1017.0 |
| 20260507143542 | 50 | 172 | 0.0 | 0.0 | 0.01 | 0.01 | 0.01 | 92 | 1016.9 |
| 20260507143033 | 49 | 172 | 0.0 | 0.0 | 0.00 | 0.00 | 0.00 | 92 | 1017.0 |
| 20260507142531 | 49 | 172 | 0.0 | 0.0 | 0.00 | 0.00 | 0.00 | 92 | 1016.9 |
| 20260507142023 | 49 | 172 | 0.0 | 0.0 | 0.00 | 0.00 | 0.00 | 92 | 1016.9 |
| 20260507141520 | 49 | 172 | 0.0 | 0.0 | 0.00 | 0.00 | 0.00 | 92 | 1016.8 |
| 20260507141030 | 49 | 172 | 0.0 | 0.0 | 0.00 | 0.00 | 0.00 | 91 | 1016.8 |
| 20260507140623 | 49 | 172 | 0.0 | 0.0 | 0.00 | 0.00 | 0.00 | 91 | 1016.8 |
| 20260507140047 | 49 | 172 | 0.0 | 0.0 | 0.00 | 0.00 | 0.00 | 91 | 1016.6 |
| 20260507135523 | 49 | 172 | 0.0 | 0.0 | 0.00 | 0.00 | 0.00 | 91 | 1016.6 |
| 20260507135018 | 49 | 172 | 0.0 | 0.0 | 0.00 | 0.00 | 0.00 | 91 | 1016.6 |
| 20260507134539 | 49 | 172 | 0.0 | 0.0 | 0.00 | 0.00 | 0.00 | 91 | 1016.6 |
| 20260507134029 | 49 | 172 | 0.0 | 0.0 | 0.00 | 0.00 | 0.00 | 91 | 1016.5 |
| 20260507133532 | 49 | 172 | 0.0 | 0.0 | 0.00 | 0.00 | 0.00 | 91 | 1016.5 |
| 20260507133023 | 49 | 172 | 0.0 | 0.0 | 0.00 | 0.00 | 0.00 | 91 | 1016.3 |
| 20260507132540 | 49 | 172 | 0.0 | 0.0 | 0.00 | 0.00 | 0.00 | 91 | 1016.4 |
| 20260507132018 | 49 | 172 | 0.0 | 0.0 | 0.00 | 0.00 | 0.00 | 91 | 1016.3 |
| 20260507131520 | 48 | 172 | 0.0 | 0.0 | 0.00 | 0.00 | 0.00 | 91 | 1016.3 |
| 20260507131029 | 48 | 172 | 0.0 | 0.0 | 0.00 | 0.00 | 0.00 | 91 | 1016.3 |
| 20260507130601 | 48 | 172 | 0.0 | 0.0 | 0.00 | 0.00 | 0.00 | 91 | 1016.3 |
| 20260507130049 | 48 | 172 | 0.0 | 0.0 | 0.00 | 0.00 | 0.00 | 91 | 1016.2 |
| 20260507125539 | 49 | 172 | 0.0 | 0.0 | 0.00 | 0.00 | 0.00 | 91 | 1016.2 |
| 20260507125048 | 49 | 172 | 0.0 | 0.0 | 0.00 | 0.00 | 0.00 | 91 | 1016.2 |
| 20260507124527 | 49 | 172 | 0.0 | 0.0 | 0.00 | 0.00 | 0.00 | 91 | 1016.2 |
| 20260507124042 | 49 | 172 | 0.0 | 0.0 | 0.00 | 0.00 | 0.00 | 91 | 1016.2 |
| 20260507123539 | 49 | 172 | 0.0 | 0.0 | 0.00 | 0.00 | 0.00 | 91 | 1016.2 |
| 20260507123032 | 49 | 172 | 0.0 | 0.0 | 0.00 | 0.00 | 0.00 | 91 | 1016.2 |
| 20260507122532 | 49 | 172 | 0.0 | 0.0 | 0.00 | 0.00 | 0.00 | 91 | 1016.1 |
| 20260507122024 | 49 | 172 | 0.0 | 0.0 | 0.00 | 0.00 | 0.00 | 91 | 1016.1 |
| 20260507121539 | 49 | 172 | 0.0 | 0.0 | 0.00 | 0.00 | 0.00 | 90 | 1016.1 |
| 20260507121025 | 49 | 172 | 0.0 | 0.0 | 0.00 | 0.00 | 0.00 | 90 | 1016.2 |
| 20260507120549 | 49 | 172 | 0.0 | 0.0 | 0.00 | 0.00 | 0.00 | 90 | 1016.2 |
| 20260507120015 | 49 | 172 | 0.0 | 0.0 | 0.00 | 0.00 | 0.00 | 90 | 1016.2 |
| 20260507115533 | 49 | 172 | 0.0 | 0.0 | 0.00 | 0.00 | 0.00 | 91 | 1016.1 |
| 20260507115024 | 49 | 172 | 0.0 | 0.0 | 0.00 | 0.00 | 0.00 | 90 | 1016.2 |
| 20260507114545 | 49 | 172 | 0.0 | 0.0 | 0.00 | 0.00 | 0.00 | 90 | 1016.2 |
| 20260507114030 | 49 | 172 | 0.0 | 0.0 | 0.00 | 0.00 | 0.00 | 90 | 1016.1 |
| 20260507113533 | 49 | 172 | 0.0 | 0.0 | 0.00 | 0.00 | 0.00 | 90 | 1016.1 |
| 20260507113025 | 49 | 172 | 0.0 | 0.0 | 0.00 | 0.00 | 0.00 | 90 | 1016.1 |
| 20260507112523 | 49 | 172 | 0.0 | 0.0 | 0.00 | 0.00 | 0.00 | 90 | 1016.2 |
| 20260507112034 | 49 | 172 | 0.0 | 0.0 | 0.00 | 0.00 | 0.00 | 90 | 1016.2 |
| 20260507111528 | 50 | 172 | 0.0 | 0.0 | 0.00 | 0.00 | 0.00 | 90 | 1016.2 |
| 20260507111024 | 50 | 172 | 0.0 | 0.0 | 0.00 | 0.00 | 0.00 | 90 | 1016.2 |
| 20260507110621 | 50 | 172 | 0.0 | 0.0 | 0.00 | 0.00 | 0.00 | 90 | 1016.2 |
| 20260507110024 | 50 | 172 | 0.0 | 0.0 | 0.00 | 0.00 | 0.00 | 90 | 1016.2 |
| 20260507105517 | 50 | 172 | 0.0 | 0.0 | 0.00 | 0.00 | 0.00 | 90 | 1016.3 |
| 20260507105029 | 50 | 172 | 0.0 | 0.0 | 0.00 | 0.00 | 0.00 | 90 | 1016.3 |
| 20260507104546 | 50 | 172 | 0.0 | 0.0 | 0.00 | 0.00 | 0.00 | 90 | 1016.4 |
| 20260507104024 | 50 | 172 | 0.0 | 0.0 | 0.00 | 0.00 | 0.00 | 90 | 1016.4 |
| 20260507103519 | 50 | 172 | 0.0 | 0.0 | 0.00 | 0.00 | 0.00 | 89 | 1016.5 |
| 20260507103029 | 50 | 172 | 0.0 | 0.0 | 0.00 | 0.00 | 0.00 | 89 | 1016.5 |
| 20260507102533 | 50 | 172 | 0.0 | 0.0 | 0.00 | 0.00 | 0.00 | 89 | 1016.5 |
| 20260507102020 | 50 | 172 | 0.0 | 0.0 | 0.00 | 0.00 | 0.00 | 89 | 1016.5 |
| 20260507101517 | 50 | 172 | 0.0 | 0.0 | 0.00 | 0.00 | 0.00 | 89 | 1016.5 |
| 20260507101036 | 50 | 172 | 0.0 | 0.0 | 0.00 | 0.00 | 0.00 | 89 | 1016.5 |
| 20260507100607 | 50 | 172 | 0.0 | 0.0 | 0.00 | 0.00 | 0.00 | 89 | 1016.5 |
| 20260507100032 | 50 | 172 | 0.0 | 0.0 | 0.00 | 0.00 | 0.00 | 89 | 1016.6 |
| 20260507095535 | 51 | 172 | 0.0 | 0.0 | 0.00 | 0.00 | 0.00 | 89 | 1016.6 |
| 20260507095039 | 51 | 172 | 0.0 | 0.0 | 0.00 | 0.00 | 0.00 | 89 | 1016.6 |
| 20260507094520 | 51 | 172 | 0.0 | 0.0 | 0.00 | 0.00 | 0.00 | 89 | 1016.6 |
| 20260507094058 | 51 | 172 | 0.0 | 0.0 | 0.00 | 0.00 | 0.00 | 89 | 1017.0 |
| 20260507093533 | 51 | 172 | 0.0 | 0.0 | 0.00 | 0.00 | 0.00 | 88 | 1016.7 |
| 20260507093023 | 51 | 172 | 0.0 | 0.0 | 0.00 | 0.00 | 0.00 | 88 | 1016.7 |
| 20260507092542 | 51 | 172 | 0.0 | 0.0 | 0.00 | 0.00 | 0.00 | 88 | 1016.7 |
| 20260507092031 | 51 | 172 | 0.0 | 0.0 | 0.00 | 0.00 | 0.00 | 88 | 1016.8 |
| 20260507091533 | 51 | 172 | 0.0 | 0.0 | 0.00 | 0.00 | 0.00 | 88 | 1016.8 |
| 20260507091023 | 51 | 172 | 0.0 | 0.0 | 0.00 | 0.00 | 0.00 | 88 | 1016.8 |
| 20260507090613 | 51 | 172 | 0.0 | 0.0 | 0.00 | 0.00 | 0.00 | 88 | 1016.8 |
| 20260507090034 | 51 | 172 | 0.0 | 0.0 | 0.00 | 0.00 | 0.00 | 88 | 1016.8 |
| 20260507085554 | 51 | 172 | 0.0 | 0.0 | 0.00 | 0.00 | 0.00 | 87 | 1017.0 |
| 20260507085044 | 51 | 172 | 0.0 | 0.0 | 0.00 | 0.00 | 0.00 | 87 | 1017.0 |
| 20260507084523 | 51 | 172 | 0.0 | 0.0 | 0.00 | 0.00 | 0.00 | 88 | 1017.0 |
| 20260507084022 | 51 | 172 | 0.0 | 0.0 | 0.00 | 0.00 | 0.00 | 88 | 1017.1 |
| 20260507083521 | 52 | 172 | 0.0 | 0.0 | 0.00 | 0.00 | 0.00 | 88 | 1017.0 |
| 20260507083031 | 52 | 172 | 0.0 | 0.0 | 0.00 | 0.00 | 0.00 | 87 | 1017.1 |
| 20260507082532 | 52 | 172 | 0.0 | 0.0 | 0.00 | 0.00 | 0.00 | 87 | 1017.1 |
| 20260507082024 | 51 | 172 | 0.0 | 0.0 | 0.00 | 0.00 | 0.00 | 87 | 1017.2 |
| 20260507081518 | 51 | 172 | 0.0 | 0.0 | 0.00 | 0.00 | 0.00 | 87 | 1017.3 |
| 20260507081029 | 51 | 172 | 0.0 | 0.0 | 0.00 | 0.00 | 0.00 | 86 | 1017.2 |
| 20260507080552 | 51 | 172 | 0.0 | 0.0 | 0.00 | 0.00 | 0.00 | 86 | 1017.3 |
| 20260507080020 | 51 | 172 | 0.0 | 0.0 | 0.00 | 0.00 | 0.00 | 86 | 1017.3 |
| 20260507075523 | 52 | 172 | 0.0 | 0.0 | 0.00 | 0.00 | 0.00 | 86 | 1017.3 |
| 20260507075034 | 52 | 172 | 0.0 | 0.0 | 0.00 | 0.00 | 0.00 | 86 | 1017.3 |
| 20260507074534 | 52 | 172 | 0.0 | 0.0 | 0.00 | 0.00 | 0.00 | 86 | 1017.2 |
| 20260507074020 | 52 | 172 | 0.0 | 0.0 | 0.00 | 0.00 | 0.00 | 86 | 1017.3 |
| 20260507073513 | 52 | 172 | 0.0 | 0.0 | 0.00 | 0.00 | 0.00 | 85 | 1017.4 |
| 20260507073026 | 52 | 172 | 0.0 | 0.0 | 0.00 | 0.00 | 0.00 | 85 | 1017.5 |
| 20260507072523 | 52 | 172 | 0.0 | 0.0 | 0.00 | 0.00 | 0.00 | 85 | 1017.3 |
| 20260507072041 | 52 | 172 | 0.0 | 0.0 | 0.00 | 0.00 | 0.00 | 85 | 1017.5 |
| 20260507071518 | 52 | 172 | 0.0 | 0.0 | 0.00 | 0.00 | 0.00 | 85 | 1017.5 |
| 20260507071027 | 52 | 172 | 0.0 | 0.0 | 0.00 | 0.00 | 0.00 | 85 | 1017.5 |
| 20260507070551 | 52 | 172 | 0.0 | 0.0 | 0.00 | 0.00 | 0.00 | 84 | 1017.5 |
| 20260507070040 | 52 | 172 | 0.0 | 0.0 | 0.00 | 0.00 | 0.00 | 84 | 1017.5 |
| 20260507065535 | 53 | 172 | 0.0 | 0.0 | 0.00 | 0.00 | 0.00 | 84 | 1017.5 |